| time (UTC) | temp C | wind direction | speed KPH | gust KPH | rain 1hr cm | rain 24hr cm | rain mn cm | humidity % | barometer mb |
| 20260508024911 | 6 | 313 | 1.6 | 3.2 | 0.00 | 0.33 | 0.03 | 94 | 1015.8 |
| 20260508023414 | 6 | 89 | 0.0 | 3.2 | 0.03 | 0.33 | 0.03 | 94 | 1015.8 |
| 20260508021911 | 7 | 133 | 0.0 | 1.6 | 0.03 | 0.33 | 0.03 | 94 | 1015.9 |
| 20260508020411 | 7 | 178 | 1.6 | 3.2 | 0.03 | 0.33 | 0.03 | 94 | 1015.9 |
| 20260508011911 | 8 | 133 | 0.0 | 1.6 | 0.00 | 0.30 | 0.00 | 94 | 1016.0 |
| 20260508010411 | 8 | 133 | 0.0 | 3.2 | 0.00 | 0.30 | 0.00 | 94 | 1016.0 |
| 20260508004911 | 8 | 45 | 0.0 | 1.6 | 0.00 | 0.30 | 0.00 | 94 | 1016.3 |
| 20260508003412 | 8 | 117 | 1.6 | 4.8 | 0.00 | 0.30 | 0.00 | 94 | 1016.4 |
| 20260508000412 | 8 | 108 | 1.6 | 3.2 | 0.00 | 0.30 | 0.00 | 93 | 1016.7 |
| 20260507234912 | 9 | 139 | 1.6 | 4.8 | 0.00 | 0.30 | 0.00 | 93 | 1016.7 |
| 20260507233411 | 9 | 88 | 0.0 | 3.2 | 0.00 | 0.30 | 0.00 | 93 | 1016.7 |
| 20260507231912 | 9 | 178 | 0.0 | 1.6 | 0.00 | 0.30 | 0.00 | 93 | 1016.8 |
| 20260507230411 | 9 | 197 | 0.0 | 1.6 | 0.00 | 0.30 | 0.00 | 93 | 1017.0 |
| 20260507223412 | 9 | 359 | 1.6 | 3.2 | 0.00 | 0.30 | 0.00 | 93 | 1017.1 |
| 20260507221911 | 9 | 241 | 0.0 | 1.6 | 0.00 | 0.30 | 0.00 | 93 | 1017.1 |
| 20260507214911 | 9 | 142 | 1.6 | 3.2 | 0.00 | 0.30 | 0.30 | 93 | 1017.0 |
| 20260507213411 | 10 | 230 | 1.6 | 3.2 | 0.00 | 0.30 | 0.30 | 93 | 1016.9 |
| 20260507203412 | 10 | 220 | 3.2 | 4.8 | 0.00 | 0.30 | 0.30 | 92 | 1016.7 |
| 20260507201913 | 10 | 218 | 3.2 | 4.8 | 0.00 | 0.30 | 0.30 | 92 | 1016.6 |
| 20260507200411 | 10 | 221 | 1.6 | 4.8 | 0.00 | 0.30 | 0.30 | 92 | 1016.4 |
| 20260507194913 | 10 | 97 | 1.6 | 6.4 | 0.00 | 0.30 | 0.30 | 92 | 1016.4 |
| 20260507193412 | 10 | 221 | 3.2 | 6.4 | 0.00 | 0.30 | 0.30 | 92 | 1016.2 |
| 20260507190411 | 10 | 133 | 3.2 | 6.4 | 0.13 | 0.30 | 0.30 | 90 | 1015.9 |
| 20260507184912 | 10 | 88 | 1.6 | 4.8 | 0.25 | 0.36 | 0.30 | 90 | 1015.7 |
| 20260507183412 | 11 | 89 | 1.6 | 4.8 | 0.25 | 0.36 | 0.30 | 88 | 1015.5 |
| 20260507181911 | 11 | 175 | 1.6 | 4.8 | 0.25 | 0.36 | 0.30 | 87 | 1015.4 |
| 20260507174911 | 12 | 177 | 0.0 | 4.8 | 0.00 | 0.15 | 0.05 | 71 | 1014.9 |
| 20260507173411 | 12 | 113 | 1.6 | 4.8 | 0.00 | 0.15 | 0.05 | 71 | 1014.8 |
| 20260507170415 | 13 | 360 | 1.6 | 9.7 | 0.00 | 0.15 | 0.05 | 70 | 1014.5 |
| 20260507164911 | 13 | 22 | 3.2 | 8.0 | 0.00 | 0.15 | 0.05 | 71 | 1014.2 |
| 20260507163412 | 13 | 360 | 3.2 | 6.4 | 0.00 | 0.15 | 0.05 | 67 | 1014.4 |
| 20260507161911 | 14 | 313 | 3.2 | 8.0 | 0.00 | 0.15 | 0.05 | 63 | 1014.3 |
| 20260507154916 | 15 | 359 | 4.8 | 9.7 | 0.00 | 0.15 | 0.05 | 61 | 1014.2 |
| 20260507153412 | 14 | 301 | 4.8 | 9.7 | 0.00 | 0.15 | 0.05 | 62 | 1014.2 |
| 20260507151912 | 15 | 302 | 6.4 | 14.5 | 0.00 | 0.15 | 0.05 | 60 | 1014.1 |
| 20260507150412 | 15 | 359 | 6.4 | 12.9 | 0.00 | 0.15 | 0.05 | 58 | 1014.0 |
| 20260507144912 | 15 | 301 | 3.2 | 9.7 | 0.00 | 0.15 | 0.05 | 57 | 1013.9 |
| 20260507143413 | 15 | 359 | 8.0 | 12.9 | 0.00 | 0.15 | 0.05 | 57 | 1013.9 |
| 20260507141912 | 15 | 323 | 6.4 | 14.5 | 0.00 | 0.15 | 0.05 | 54 | 1013.7 |
| 20260507140413 | 16 | 359 | 9.7 | 20.9 | 0.00 | 0.15 | 0.05 | 53 | 1013.6 |
| 20260507133412 | 15 | 313 | 9.7 | 16.1 | 0.00 | 0.15 | 0.05 | 54 | 1013.8 |
| 20260507131912 | 16 | 292 | 11.3 | 19.3 | 0.00 | 0.15 | 0.05 | 54 | 1013.7 |
| 20260507130412 | 16 | 313 | 4.8 | 17.7 | 0.00 | 0.15 | 0.05 | 54 | 1013.7 |
| 20260507124912 | 16 | 359 | 12.9 | 22.5 | 0.00 | 0.15 | 0.05 | 51 | 1013.6 |
| 20260507123412 | 16 | 283 | 9.7 | 19.3 | 0.00 | 0.15 | 0.05 | 53 | 1013.7 |
| 20260507120413 | 15 | 359 | 4.8 | 12.9 | 0.00 | 0.15 | 0.05 | 58 | 1013.6 |
| 20260507114912 | 15 | 359 | 8.0 | 14.5 | 0.00 | 0.15 | 0.05 | 61 | 1013.6 |
| 20260507113412 | 15 | 247 | 8.0 | 14.5 | 0.00 | 0.15 | 0.05 | 63 | 1013.7 |
| 20260507111910 | 14 | 221 | 6.4 | 17.7 | 0.00 | 0.15 | 0.05 | 63 | 1013.6 |
| 20260507110412 | 14 | 245 | 6.4 | 22.5 | 0.00 | 0.15 | 0.05 | 65 | 1013.7 |
| 20260507104913 | 13 | 250 | 8.0 | 12.9 | 0.00 | 0.15 | 0.05 | 71 | 1013.7 |
| 20260507103412 | 13 | 244 | 6.4 | 11.3 | 0.00 | 0.15 | 0.05 | 74 | 1013.9 |
| 20260507101912 | 12 | 134 | 4.8 | 11.3 | 0.00 | 0.15 | 0.05 | 75 | 1013.8 |
| 20260507093412 | 11 | 209 | 3.2 | 9.7 | 0.03 | 0.15 | 0.05 | 77 | 1013.9 |
| 20260507084913 | 10 | 232 | 4.8 | 9.7 | 0.05 | 0.15 | 0.05 | 82 | 1013.6 |
| 20260507081913 | 10 | 256 | 1.6 | 11.3 | 0.03 | 0.15 | 0.03 | 81 | 1013.5 |
| 20260507080414 | 11 | 359 | 6.4 | 16.1 | 0.03 | 0.15 | 0.03 | 78 | 1013.2 |
| 20260507074912 | 11 | 278 | 4.8 | 9.7 | 0.00 | 0.13 | 0.00 | 78 | 1013.2 |
| 20260507073412 | 11 | 287 | 9.7 | 16.1 | 0.00 | 0.13 | 0.00 | 76 | 1013.2 |
| 20260507070412 | 11 | 213 | 4.8 | 11.3 | 0.00 | 0.13 | 0.00 | 76 | 1013.0 |
| 20260507064913 | 11 | 232 | 6.4 | 24.1 | 0.00 | 0.13 | 0.00 | 75 | 1012.8 |
| 20260507063413 | 10 | 216 | 3.2 | 6.4 | 0.00 | 0.13 | 0.00 | 80 | 1012.8 |
| 20260507061913 | 10 | 55 | 1.6 | 4.8 | 0.00 | 0.13 | 0.00 | 82 | 1012.7 |
| 20260507060413 | 10 | 133 | 1.6 | 6.4 | 0.00 | 0.13 | 0.00 | 79 | 1012.5 |
| 20260507054913 | 10 | 107 | 3.2 | 4.8 | 0.00 | 0.13 | 0.00 | 79 | 1012.4 |
| 20260507050413 | 10 | 308 | 1.6 | 3.2 | 0.00 | 0.13 | 0.00 | 80 | 1011.9 |
| 20260507044913 | 9 | 232 | 3.2 | 6.4 | 0.00 | 0.13 | 0.00 | 79 | 1011.7 |
| 20260507043413 | 10 | 222 | 1.6 | 6.4 | 0.00 | 0.13 | 0.00 | 79 | 1011.5 |
| 20260507041913 | 10 | 226 | 4.8 | 8.0 | 0.00 | 0.13 | 0.00 | 78 | 1011.3 |
| 20260507040413 | 10 | 198 | 3.2 | 8.0 | 0.00 | 0.13 | 0.00 | 78 | 1011.2 |
| 20260507034913 | 10 | 268 | 3.2 | 11.3 | 0.00 | 0.13 | 0.00 | 77 | 1011.2 |
| 20260507033413 | 10 | 216 | 3.2 | 8.0 | 0.00 | 0.13 | 0.00 | 78 | 1011.0 |
| 20260507031913 | 10 | 139 | 3.2 | 8.0 | 0.00 | 0.13 | 0.00 | 78 | 1011.1 |
| 20260507030413 | 10 | 249 | 3.2 | 6.4 | 0.00 | 0.13 | 0.00 | 78 | 1011.0 |